Time,TemperatureF,DewpointF,PressureIn,WindDirection,WindDirectionDegrees,WindSpeedMPH,WindSpeedGustMPH,Humidity,HourlyPrecipIn,Conditions,Clouds,dailyrainin,SoftwareType,DateUTC
2016-12-06 00:00:00,31.6,30.4,30.24,South,176,0.0,0.0,95,0.00,SCT,,0.00,WeatherDisplay:10.37,2016-12-06 00:00:00,
2016-12-06 00:10:00,31.6,30.4,30.24,East,95,0.0,2.0,95,0.00,SCT,,0.00,WeatherDisplay:10.37,2016-12-06 00:10:00,
2016-12-06 00:18:00,31.5,30.2,30.24,East,83,0.0,2.0,95,0.00,SCT,,0.00,WeatherDisplay:10.37,2016-12-06 00:18:00,
2016-12-06 00:30:00,31.5,29.9,30.24,NNE,28,0.0,2.0,94,0.00,SCT,,0.00,WeatherDisplay:10.37,2016-12-06 00:30:00,
2016-12-06 00:40:00,31.3,29.8,30.24,NNE,22,0.0,0.0,94,0.00,SCT,,0.00,WeatherDisplay:10.37,2016-12-06 00:40:00,
2016-12-06 00:50:00,31.5,29.9,30.24,NNE,22,0.0,0.0,94,0.00,SCT,,0.00,WeatherDisplay:10.37,2016-12-06 00:50:00,
2016-12-06 01:00:00,31.6,30.0,30.24,West,272,0.0,0.0,94,0.00,SCT,,0.00,WeatherDisplay:10.37,2016-12-06 01:00:00,
2016-12-06 01:10:00,31.6,30.4,30.24,WNW,292,0.0,0.0,95,0.00,SCT,,0.00,WeatherDisplay:10.37,2016-12-06 01:10:00,
2016-12-06 01:20:00,32.0,30.7,30.24,WSW,248,0.0,0.0,95,0.00,SCT,,0.00,WeatherDisplay:10.37,2016-12-06 01:20:00,
2016-12-06 01:30:00,32.0,30.7,30.24,WSW,248,0.0,0.0,95,0.00,SCT,,0.00,WeatherDisplay:10.37,2016-12-06 01:30:00,
2016-12-06 01:40:00,32.2,30.9,30.24,WSW,248,0.0,0.0,95,0.00,SCT,,0.00,WeatherDisplay:10.37,2016-12-06 01:40:00,
2016-12-06 01:50:00,32.2,30.9,30.24,WSW,248,0.0,0.0,95,0.00,SCT,,0.00,WeatherDisplay:10.37,2016-12-06 01:50:00,
2016-12-06 02:00:00,32.2,30.9,30.24,WSW,248,0.0,0.0,95,0.00,SCT,,0.00,WeatherDisplay:10.37,2016-12-06 02:00:00,
2016-12-06 02:10:00,32.2,30.9,30.26,WSW,248,0.0,0.0,95,0.00,SCT,,0.00,WeatherDisplay:10.37,2016-12-06 02:10:00,
2016-12-06 02:20:00,32.4,31.1,30.27,WSW,248,0.0,0.0,95,0.00,SCT,,0.00,WeatherDisplay:10.37,2016-12-06 02:20:00,
2016-12-06 02:30:00,32.4,31.1,30.27,SSW,213,0.0,0.0,95,0.00,SCT,,0.00,WeatherDisplay:10.37,2016-12-06 02:30:00,
2016-12-06 02:40:00,32.4,31.1,30.27,South,180,0.0,0.0,95,0.00,SCT,,0.00,WeatherDisplay:10.37,2016-12-06 02:40:00,
2016-12-06 02:50:00,32.5,31.3,30.27,SSE,162,0.0,0.0,95,0.00,SCT,,0.00,WeatherDisplay:10.37,2016-12-06 02:50:00,
2016-12-06 03:00:00,32.5,31.3,30.27,North,350,0.0,1.0,95,0.00,SCT,,0.00,WeatherDisplay:10.37,2016-12-06 03:00:00,
2016-12-06 03:10:00,32.5,31.5,30.27,ENE,69,0.0,0.0,96,0.00,SCT,,0.00,WeatherDisplay:10.37,2016-12-06 03:10:00,
2016-12-06 03:20:00,32.5,31.5,30.27,SSW,198,0.0,2.0,96,0.00,SCT,,0.00,WeatherDisplay:10.37,2016-12-06 03:20:00,
2016-12-06 03:30:00,32.7,31.7,30.27,SSW,202,0.0,0.0,96,0.00,SCT,,0.00,WeatherDisplay:10.37,2016-12-06 03:30:00,
2016-12-06 03:40:00,32.7,31.7,30.27,SSW,202,0.0,0.0,96,0.00,SCT,,0.00,WeatherDisplay:10.37,2016-12-06 03:40:00,
2016-12-06 03:50:00,32.9,31.9,30.25,SSW,202,0.0,0.0,96,0.00,SCT,,0.00,WeatherDisplay:10.37,2016-12-06 03:50:00,
2016-12-06 04:00:00,32.9,31.9,30.24,SSE,148,0.0,2.0,96,0.00,SCT,,0.00,WeatherDisplay:10.37,2016-12-06 04:00:00,
2016-12-06 04:10:00,32.9,31.9,30.24,NE,44,0.0,0.0,96,0.00,SCT,,0.00,WeatherDisplay:10.37,2016-12-06 04:10:00,
2016-12-06 04:20:00,32.9,31.9,30.24,North,1,0.0,2.0,96,0.00,SCT,,0.00,WeatherDisplay:10.37,2016-12-06 04:20:00,
2016-12-06 04:30:00,32.7,31.7,30.24,ENE,65,0.0,0.0,96,0.00,SCT,,0.00,WeatherDisplay:10.37,2016-12-06 04:30:00,
2016-12-06 04:40:00,32.7,31.7,30.24,ENE,75,0.0,0.0,96,0.00,SCT,,0.00,WeatherDisplay:10.37,2016-12-06 04:40:00,
2016-12-06 04:50:00,32.5,31.5,30.24,ENE,68,0.0,0.0,96,0.00,SCT,,0.00,WeatherDisplay:10.37,2016-12-06 04:50:00,
2016-12-06 05:10:00,32.7,31.7,30.24,SSW,202,0.0,0.0,96,0.00,SCT,,0.00,WeatherDisplay:10.37,2016-12-06 05:10:00,
2016-12-06 05:20:00,32.7,31.7,30.24,SSW,202,0.0,0.0,96,0.00,SCT,,0.00,WeatherDisplay:10.37,2016-12-06 05:20:00,
2016-12-06 05:30:00,32.9,31.8,30.24,South,187,0.0,0.0,96,0.00,SCT,,0.00,WeatherDisplay:10.37,2016-12-06 05:30:00,
2016-12-06 05:40:00,32.7,31.7,30.24,SSE,158,0.0,0.0,96,0.00,SCT,,0.00,WeatherDisplay:10.37,2016-12-06 05:40:00,
2016-12-06 05:50:00,32.7,31.7,30.24,SSE,158,0.0,0.0,96,0.00,SCT,,0.00,WeatherDisplay:10.37,2016-12-06 05:50:00,
2016-12-06 06:00:00,32.7,31.7,30.24,SSE,158,0.0,0.0,96,0.00,SCT,,0.00,WeatherDisplay:10.37,2016-12-06 06:00:00,
2016-12-06 06:10:00,32.7,31.7,30.24,SSE,158,0.0,0.0,96,0.00,SCT,,0.00,WeatherDisplay:10.37,2016-12-06 06:10:00,
2016-12-06 06:20:00,32.5,31.5,30.24,South,191,0.0,0.0,96,0.00,SCT,,0.00,WeatherDisplay:10.37,2016-12-06 06:20:00,
2016-12-06 06:30:00,32.4,31.4,30.24,SW,225,0.0,0.0,96,0.00,SCT,,0.00,WeatherDisplay:10.37,2016-12-06 06:30:00,
2016-12-06 06:40:00,32.5,31.5,30.24,SW,225,0.0,0.0,96,0.00,SCT,,0.00,WeatherDisplay:10.37,2016-12-06 06:40:00,
2016-12-06 06:50:00,32.7,31.7,30.24,SW,225,0.0,0.0,96,0.00,SCT,,0.00,WeatherDisplay:10.37,2016-12-06 06:50:00,
2016-12-06 07:00:00,32.5,31.5,30.24,SW,225,0.0,0.0,96,0.00,SCT,,0.00,WeatherDisplay:10.37,2016-12-06 07:00:00,
2016-12-06 07:10:00,32.4,31.3,30.27,SW,225,0.0,0.0,96,0.00,SCT,,0.00,WeatherDisplay:10.37,2016-12-06 07:10:00,
2016-12-06 07:20:00,32.2,31.2,30.25,SW,225,0.0,0.0,96,0.00,SCT,,0.00,WeatherDisplay:10.37,2016-12-06 07:20:00,
2016-12-06 07:30:00,32.2,31.2,30.24,SW,225,0.0,0.0,96,0.00,SCT,,0.00,WeatherDisplay:10.37,2016-12-06 07:30:00,
2016-12-06 07:40:00,32.2,31.2,30.24,SW,225,0.0,0.0,96,0.00,SCT,,0.00,WeatherDisplay:10.37,2016-12-06 07:40:00,
2016-12-06 07:50:00,32.2,31.2,30.26,SW,225,0.0,0.0,96,0.00,SCT,,0.00,WeatherDisplay:10.37,2016-12-06 07:50:00,
2016-12-06 08:00:00,32.0,31.0,30.27,SW,225,0.0,0.0,96,0.00,SCT,,0.00,WeatherDisplay:10.37,2016-12-06 08:00:00,
2016-12-06 08:10:00,32.0,31.0,30.27,SW,225,0.0,0.0,96,0.00,SCT,,0.00,WeatherDisplay:10.37,2016-12-06 08:10:00,
2016-12-06 08:20:00,32.1,31.1,30.27,SW,225,0.0,0.0,96,0.00,SCT,,0.00,WeatherDisplay:10.37,2016-12-06 08:20:00,
2016-12-06 08:30:00,32.4,31.3,30.27,SW,225,0.0,0.0,96,0.00,SCT,,0.00,WeatherDisplay:10.37,2016-12-06 08:30:00,
2016-12-06 08:40:00,32.7,31.7,30.30,SW,225,0.0,0.0,96,0.00,SCT,,0.00,WeatherDisplay:10.37,2016-12-06 08:40:00,
2016-12-06 08:50:00,33.1,32.1,30.30,SW,232,2.0,3.0,96,0.00,SCT,,0.00,WeatherDisplay:10.37,2016-12-06 08:50:00,
2016-12-06 09:00:00,33.1,32.1,30.30,WSW,241,0.0,5.0,96,0.00,SCT,,0.00,WeatherDisplay:10.37,2016-12-06 09:00:00,
2016-12-06 09:10:00,33.3,32.2,30.30,SW,221,1.0,3.0,96,0.00,SCT,,0.00,WeatherDisplay:10.37,2016-12-06 09:10:00,
2016-12-06 09:20:00,33.6,32.6,30.30,WSW,249,0.0,2.0,96,0.00,SCT,,0.00,WeatherDisplay:10.37,2016-12-06 09:20:00,
2016-12-06 09:30:00,33.8,32.8,30.30,SW,215,0.0,0.0,96,0.00,SCT,,0.00,WeatherDisplay:10.37,2016-12-06 09:30:00,
2016-12-06 09:40:00,34.0,33.0,30.30,SW,225,0.0,1.0,96,0.00,SCT,,0.00,WeatherDisplay:10.37,2016-12-06 09:40:00,
2016-12-06 09:50:00,34.3,33.6,30.30,SW,226,1.0,1.0,97,0.00,SCT,,0.00,WeatherDisplay:10.37,2016-12-06 09:50:00,
2016-12-06 10:00:00,34.5,33.8,30.30,SW,229,0.0,3.0,97,0.00,SCT,,0.00,WeatherDisplay:10.37,2016-12-06 10:00:00,
2016-12-06 10:10:00,34.9,34.1,30.30,SSW,202,0.0,3.0,97,0.00,SCT,,0.00,WeatherDisplay:10.37,2016-12-06 10:10:00,
2016-12-06 10:20:00,35.1,34.3,30.30,ESE,114,0.0,1.0,97,0.00,SCT,,0.00,WeatherDisplay:10.37,2016-12-06 10:20:00,
2016-12-06 10:30:00,35.2,34.5,30.30,ESE,121,0.0,0.0,97,0.00,SCT,,0.00,WeatherDisplay:10.37,2016-12-06 10:30:00,
2016-12-06 10:40:00,35.6,34.8,30.30,SSE,151,0.0,0.0,97,0.00,SCT,,0.00,WeatherDisplay:10.37,2016-12-06 10:40:00,
2016-12-06 10:50:00,36.0,35.3,30.30,ESE,112,0.0,2.0,97,0.00,SCT,,0.00,WeatherDisplay:10.37,2016-12-06 10:50:00,
2016-12-06 11:00:00,36.5,35.7,30.30,SE,137,0.0,4.0,97,0.00,SCT,,0.00,WeatherDisplay:10.37,2016-12-06 11:00:00,
2016-12-06 11:10:00,37.0,36.3,30.30,ESE,123,1.0,3.0,97,0.00,SCT,,0.00,WeatherDisplay:10.37,2016-12-06 11:10:00,
2016-12-06 11:20:00,37.2,36.4,30.28,SE,136,0.0,2.0,97,0.00,SCT,,0.00,WeatherDisplay:10.37,2016-12-06 11:20:00,
2016-12-06 11:30:00,37.4,36.6,30.27,SSE,158,0.0,2.0,97,0.00,SCT,,0.00,WeatherDisplay:10.37,2016-12-06 11:30:00,
2016-12-06 11:40:00,37.9,37.2,30.27,SSE,158,0.0,0.0,97,0.00,SCT,,0.00,WeatherDisplay:10.37,2016-12-06 11:40:00,
2016-12-06 11:50:00,38.4,37.6,30.27,SSE,158,0.0,0.0,97,0.00,SCT,,0.00,WeatherDisplay:10.37,2016-12-06 11:50:00,
2016-12-06 12:00:00,39.0,38.2,30.27,SSE,158,0.0,0.0,97,0.00,SCT,,0.00,WeatherDisplay:10.37,2016-12-06 12:00:00,
2016-12-06 12:10:00,39.4,38.6,30.27,SE,138,0.0,2.0,97,0.00,SCT,,0.00,WeatherDisplay:10.37,2016-12-06 12:10:00,
2016-12-06 12:20:00,40.1,39.3,30.27,SSE,157,2.0,5.0,97,0.00,SCT,,0.00,WeatherDisplay:10.37,2016-12-06 12:20:00,
2016-12-06 12:30:00,40.5,39.7,30.27,South,173,1.0,4.0,97,0.00,SCT,,0.00,WeatherDisplay:10.37,2016-12-06 12:30:00,
2016-12-06 12:40:00,40.8,40.0,30.27,South,178,0.0,3.0,97,0.00,SCT,,0.00,WeatherDisplay:10.37,2016-12-06 12:40:00,
2016-12-06 12:50:00,41.2,40.4,30.27,SSE,148,1.0,3.0,97,0.00,SCT,,0.00,WeatherDisplay:10.37,2016-12-06 12:50:00,
2016-12-06 13:00:00,41.5,40.8,30.27,SSE,167,1.0,2.0,97,0.00,SCT,,0.00,WeatherDisplay:10.37,2016-12-06 13:00:00,
2016-12-06 13:10:00,41.7,40.9,30.27,South,180,0.0,3.0,97,0.00,SCT,,0.00,WeatherDisplay:10.37,2016-12-06 13:10:00,
2016-12-06 13:20:00,42.1,41.3,30.27,SSE,157,0.0,3.0,97,0.00,SCT,,0.00,WeatherDisplay:10.37,2016-12-06 13:20:00,
2016-12-06 13:30:00,42.3,41.5,30.27,SSE,162,0.0,2.0,97,0.00,SCT,,0.00,WeatherDisplay:10.37,2016-12-06 13:30:00,
2016-12-06 13:40:00,42.4,41.6,30.27,SE,144,3.0,6.0,97,0.00,SCT,,0.00,WeatherDisplay:10.37,2016-12-06 13:40:00,
2016-12-06 13:50:00,42.6,41.8,30.27,SSE,155,2.0,4.0,97,0.00,SCT,,0.00,WeatherDisplay:10.37,2016-12-06 13:50:00,
2016-12-06 14:00:00,42.8,42.0,30.27,SE,125,5.0,6.0,97,0.00,SCT,,0.00,WeatherDisplay:10.37,2016-12-06 14:00:00,
2016-12-06 14:10:00,43.0,42.2,30.25,SSE,157,3.0,5.0,97,0.00,SCT,,0.00,WeatherDisplay:10.37,2016-12-06 14:10:00,
2016-12-06 14:20:00,43.0,42.2,30.24,SSE,155,0.0,5.0,97,0.00,SCT,,0.00,WeatherDisplay:10.37,2016-12-06 14:20:00,
2016-12-06 14:30:00,43.2,42.4,30.24,SSE,152,2.0,3.0,97,0.00,SCT,,0.00,WeatherDisplay:10.37,2016-12-06 14:30:00,
2016-12-06 14:40:00,43.3,42.5,30.24,SSE,158,0.0,3.0,97,0.00,SCT,,0.00,WeatherDisplay:10.37,2016-12-06 14:40:00,
2016-12-06 14:50:00,43.3,42.5,30.24,SSE,159,1.0,5.0,97,0.00,SCT,,0.00,WeatherDisplay:10.37,2016-12-06 14:50:00,
2016-12-06 15:00:00,43.5,42.7,30.24,SSE,165,0.0,5.0,97,0.00,SCT,,0.00,WeatherDisplay:10.37,2016-12-06 15:00:00,
2016-12-06 15:20:00,43.9,43.1,30.24,SE,135,1.0,5.0,97,0.00,SCT,,0.00,WeatherDisplay:10.37,2016-12-06 15:20:00,
2016-12-06 15:30:00,44.1,43.3,30.24,SE,133,2.0,3.0,97,0.00,SCT,,0.00,WeatherDisplay:10.37,2016-12-06 15:30:00,
2016-12-06 15:40:00,44.1,43.3,30.24,SSE,155,1.0,3.0,97,0.00,SCT,,0.00,WeatherDisplay:10.37,2016-12-06 15:40:00,
2016-12-06 15:50:00,44.1,43.3,30.24,SSE,147,0.0,2.0,97,0.00,SCT,,0.00,WeatherDisplay:10.37,2016-12-06 15:50:00,
2016-12-06 16:00:00,44.2,43.4,30.24,SSE,155,1.0,2.0,97,0.00,SCT,,0.00,WeatherDisplay:10.37,2016-12-06 16:00:00,
2016-12-06 16:10:00,44.2,43.4,30.24,SSE,158,0.0,2.0,97,0.00,SCT,,0.00,WeatherDisplay:10.37,2016-12-06 16:10:00,
2016-12-06 16:20:00,44.4,43.6,30.26,SSE,153,1.0,2.0,97,0.00,SCT,,0.00,WeatherDisplay:10.37,2016-12-06 16:20:00,
2016-12-06 16:30:00,44.6,43.8,30.27,SSE,163,0.0,2.0,97,0.00,SCT,,0.00,WeatherDisplay:10.37,2016-12-06 16:30:00,
2016-12-06 16:40:00,44.6,43.8,30.27,SSE,168,0.0,3.0,97,0.00,SCT,,0.00,WeatherDisplay:10.37,2016-12-06 16:40:00,
2016-12-06 16:50:00,44.8,44.0,30.27,SE,143,1.0,3.0,97,0.00,SCT,,0.00,WeatherDisplay:10.37,2016-12-06 16:50:00,
2016-12-06 17:00:00,45.0,44.2,30.27,SSE,152,1.0,4.0,97,0.00,SCT,,0.00,WeatherDisplay:10.37,2016-12-06 17:00:00,
2016-12-06 17:10:00,45.0,44.2,30.27,ESE,122,2.0,4.0,97,0.00,SCT,,0.00,WeatherDisplay:10.37,2016-12-06 17:10:00,
2016-12-06 17:20:00,45.0,44.2,30.27,ESE,122,0.0,4.0,97,0.00,SCT,,0.00,WeatherDisplay:10.37,2016-12-06 17:20:00,
2016-12-06 17:30:00,45.0,44.2,30.27,SSE,154,0.0,6.0,97,0.00,SCT,,0.00,WeatherDisplay:10.37,2016-12-06 17:30:00,
2016-12-06 17:40:00,45.0,44.2,30.27,SE,137,0.0,5.0,97,0.00,SCT,,0.00,WeatherDisplay:10.37,2016-12-06 17:40:00,
2016-12-06 17:50:00,45.1,44.3,30.27,SSE,165,1.0,5.0,97,0.00,SCT,,0.00,WeatherDisplay:10.37,2016-12-06 17:50:00,
2016-12-06 18:00:00,45.1,44.3,30.27,SSE,154,1.0,4.0,97,0.00,SCT,,0.00,WeatherDisplay:10.37,2016-12-06 18:00:00,
2016-12-06 18:10:00,45.1,44.3,30.27,SE,128,2.0,5.0,97,0.00,SCT,,0.00,WeatherDisplay:10.37,2016-12-06 18:10:00,
2016-12-06 18:20:00,45.3,44.5,30.27,SSE,155,2.0,4.0,97,0.00,SCT,,0.00,WeatherDisplay:10.37,2016-12-06 18:20:00,
2016-12-06 18:30:00,45.3,44.5,30.27,SE,124,0.0,4.0,97,0.00,SCT,,0.00,WeatherDisplay:10.37,2016-12-06 18:30:00,
2016-12-06 18:40:00,45.3,44.5,30.27,SE,146,0.0,4.0,97,0.00,SCT,,0.00,WeatherDisplay:10.37,2016-12-06 18:40:00,
2016-12-06 18:50:00,45.5,44.7,30.25,SSE,162,6.0,7.0,97,0.00,SCT,,0.00,WeatherDisplay:10.37,2016-12-06 18:50:00,
2016-12-06 19:00:00,45.5,44.7,30.24,ESE,121,0.0,2.0,97,0.00,SCT,,0.00,WeatherDisplay:10.37,2016-12-06 19:00:00,
2016-12-06 19:10:00,45.5,44.7,30.27,SSE,160,0.0,2.0,97,0.00,SCT,,0.00,WeatherDisplay:10.37,2016-12-06 19:10:00,
2016-12-06 19:20:00,45.5,44.7,30.27,South,175,0.0,6.0,97,0.00,SCT,,0.00,WeatherDisplay:10.37,2016-12-06 19:20:00,
2016-12-06 19:30:00,45.5,44.7,30.27,South,180,0.0,4.0,97,0.00,SCT,,0.00,WeatherDisplay:10.37,2016-12-06 19:30:00,
2016-12-06 19:40:00,45.5,44.7,30.27,SSW,197,3.0,5.0,97,0.00,SCT,,0.00,WeatherDisplay:10.37,2016-12-06 19:40:00,
2016-12-06 19:50:00,45.7,44.9,30.27,SSW,205,5.0,7.0,97,0.00,SCT,,0.00,WeatherDisplay:10.37,2016-12-06 19:50:00,